Regional Weather Roundup
Issued by NWS Albany, NY

Current Version | Previous Version | Graphics & Text | Print | Product List | Glossary Off
Versions: 1 2 3 4 5 6 7 8 9 10 11 12 13 14 15 16 17 18 19 20 21 22 23 24 25 26 27 28 29 30 31 32 33 34 35 36 37 38 39 40 41 42 43 44 45 46 47 48 49 50

000
ASUS41 KALY 042310
RWRALY

NEW YORK STATE HOURLY WEATHER ROUNDUP
NATIONAL WEATHER SERVICE ALBANY NY
700 PM EDT FRI SEP 04 2015

NOTE: "FAIR" INDICATES FEW OR NO CLOUDS BELOW 12,000 FEET WITH NO
SIGNIFICANT WEATHER AND/OR NO OBSTRUCTIONS TO VISIBILITY.

NYZ032-033-038>043-046>054-057>066-NYZ062>081-050000-
EAST


CITY           SKY/WX    TMP DP  RH WIND       PRES   REMARKS
ALBANY         MOCLDY    80  61  52 SE6       30.14R
GLENS FALLS    CLEAR     79  62  56 N6        30.14R
POUGHKEEPSIE   CLEAR     80  62  54 NE5       30.12R
NEWBURGH       PTCLDY    79  68  69 E9        30.14S
MONTGOMERY     CLOUDY    79  67  66 NE3       30.13S
WHITE PLAINS   CLEAR     76  62  62 E6        30.13S
ISLIP          PTCLDY    76  62  62 E10       30.11S
NEW YORK CITY  PTCLDY    80  66  62 SE8       30.11S
CENTRAL PARK   MOCLDY    81  63  54 VRB6      30.14S
$$

NYZ005>009-017-018-044>046-055-056-050000-
CENTRAL


CITY           SKY/WX    TMP DP  RH WIND       PRES   REMARKS
FULTON         CLEAR     77  61  57 N7        30.11S
SYRACUSE       PTCLDY    80  63  55 NE6       30.10R
ROME           CLEAR     80  64  58 E7        30.12R
ELMIRA         CLEAR     83  68  60 NE5       30.09R
BINGHAMTON     CLOUDY    76  66  71 SE6       30.15R
MONTICELLO     CLOUDY    72  66  83 E6        30.19R
$$

NYZ026>034-041>043-050000-
NORTH


CITY           SKY/WX    TMP DP  RH WIND       PRES   REMARKS
WATERTOWN      CLEAR     77  57  50 NE12      30.13R
FORT DRUM      NOT AVBL
MASSENA        CLEAR     72  53  51 NE9       30.19R
SARANAC LAKE   CLEAR     71  52  50 NE9       30.21R
PLATTSBURGH    CLEAR     74  56  53 N8        30.18R
$$

NYZ001>004-010>016-019>021-050000-
WEST


CITY           SKY/WX    TMP DP  RH WIND       PRES   REMARKS
NIAGARA FALLS  PTCLDY    78  54  43 NE12      30.07S
BUFFALO        PTCLDY    78  61  55 NE13      30.08S
DUNKIRK        MOCLDY    73  70  90 CALM      30.07R
JAMESTOWN      MOCLDY    70  63  78 CALM      30.12R
WELLSVILLE     PTCLDY    78  62  57 SE6       30.17R
ROCHESTER      PTCLDY    76  62  62 NE9       30.11S
PENN YAN       CLEAR     80  65  59 N5        30.13R
$$

             KEY
       WCI = WIND CHILL INDEX
       VSB = VISIBILITY
       HX  = HEAT INDEX
$$



USA.gov is the U.S. government's official web portal to all federal, state and local government web resources and services.